,,Stat5,,Stat1,,Stat2,,Stat3,,Stat4,,Wind1,,Wind1,
time,status,PA1M_AVG,status,PR1M_SUM,status,RH1M_AVG,status,SR1M_AVG,status,TA1M_AVG,status,W1dAve1m,status,W1sAve1m,
2000-11-13, 00:00:00,VALID,915.149,VALID,0,VALID,100,VALID,-0.0679233,VALID,20.2294,VALID,226,VALID,0,
2000-11-13, 00:01:00,VALID,915.125,VALID,0,VALID,100,VALID,-0.101885,VALID,20.2259,VALID,233,VALID,0,
2000-11-13, 00:02:00,VALID,915.117,VALID,0,VALID,100,VALID,-0.0509425,VALID,20.2328,VALID,234,VALID,0.429688,
2000-11-13, 00:03:00,VALID,915.071,VALID,0,VALID,100,VALID,0.0849042,VALID,20.2306,VALID,231,VALID,0.851985,
2000-11-13, 00:04:00,VALID,915.037,VALID,0,VALID,100,VALID,0.0509425,VALID,20.2338,VALID,249,VALID,0.631757,
2000-11-13, 00:05:00,VALID,915.011,VALID,0,VALID,100,VALID,0.0679233,VALID,20.2472,VALID,247,VALID,0.711397,
2000-11-13, 00:06:00,VALID,914.976,VALID,0,VALID,100,VALID,0.0679233,VALID,20.2502,VALID,248,VALID,0.575863,
2000-11-13, 00:07:00,VALID,914.951,VALID,0,VALID,100,VALID,0.0339617,VALID,20.2472,VALID,252,VALID,0.545313,
2000-11-13, 00:08:00,VALID,914.95,VALID,0,VALID,100,VALID,0.0339617,VALID,20.2499,VALID,244,VALID,0.397786,
2000-11-13, 00:09:00,VALID,914.947,VALID,0,VALID,100,VALID,0.0849042,VALID,20.2567,VALID,243,VALID,0.483319,
2000-11-13, 00:10:00,VALID,914.946,VALID,0,VALID,100,VALID,0.0849042,VALID,20.2658,VALID,246,VALID,0.43129,
2000-11-13, 00:11:00,VALID,914.955,VALID,0,VALID,100,VALID,0.0849042,VALID,20.2726,VALID,237,VALID,0.146793,
2000-11-13, 00:12:00,VALID,914.975,VALID,0,VALID,100,VALID,0.0339617,VALID,20.2703,VALID,235,VALID,0.608941,
2000-11-13, 00:13:00,VALID,914.975,VALID,0,VALID,100,VALID,0.0169808,VALID,20.2669,VALID,218,VALID,0.424079,
2000-11-13, 00:14:00,VALID,914.989,VALID,0,VALID,100,VALID,0.0169808,VALID,20.2505,VALID,198,VALID,0.445117,
2000-11-13, 00:15:00,VALID,915,VALID,0,VALID,100,VALID,0.0679233,VALID,20.2278,VALID,172,VALID,0.680715,
2000-11-13, 00:16:00,VALID,914.997,VALID,0,VALID,100,VALID,0.0509425,VALID,20.2152,VALID,166,VALID,0.474301,
2000-11-13, 00:17:00,VALID,915.001,VALID,0,VALID,100,VALID,0.0509425,VALID,20.205,VALID,176,VALID,0.705798,
2000-11-13, 00:18:00,VALID,914.998,VALID,0,VALID,100,VALID,-0.0339617,VALID,20.2135,VALID,197,VALID,0.648643,
2000-11-13, 00:19:00,VALID,914.995,VALID,0,VALID,100,VALID,-0.0509425,VALID,20.2097,VALID,211,VALID,0.522615,
2000-11-13, 00:20:00,VALID,914.989,VALID,0,VALID,100,VALID,-0.0679233,VALID,20.2226,VALID,200,VALID,0.409128,
2000-11-13, 00:21:00,VALID,914.962,VALID,0,VALID,100,VALID,-0.0509425,VALID,20.2229,VALID,201,VALID,0.569511,
2000-11-13, 00:22:00,VALID,914.957,VALID,0,VALID,100,VALID,-0.0679233,VALID,20.2226,VALID,215,VALID,0.382422,
2000-11-13, 00:23:00,VALID,914.949,VALID,0,VALID,100,VALID,-0.0849042,VALID,20.2361,VALID,237,VALID,0.702097,
2000-11-13, 00:24:00,VALID,914.927,VALID,0,VALID,100,VALID,-0.0679233,VALID,20.2224,VALID,231,VALID,0.790913,
2000-11-13, 00:25:00,VALID,914.919,VALID,0,VALID,100,VALID,-0.0679233,VALID,20.2323,VALID,223,VALID,0.628701,
2000-11-13, 00:26:00,VALID,914.9,VALID,0,VALID,100,VALID,-0.0849042,VALID,20.2557,VALID,225,VALID,0.469161,
2000-11-13, 00:27:00,VALID,914.876,VALID,0,VALID,100,VALID,-0.0679233,VALID,20.2579,VALID,221,VALID,0.583676,
2000-11-13, 00:28:00,VALID,914.871,VALID,0,VALID,100,VALID,-0.0679233,VALID,20.2582,VALID,222,VALID,0.693668,
2000-11-13, 00:29:00,VALID,914.865,VALID,0,VALID,100,VALID,-0.0679233,VALID,20.2622,VALID,231,VALID,0.620593,
2000-11-13, 00:30:00,VALID,914.871,VALID,0,VALID,100,VALID,-0.101885,VALID,20.255,VALID,217,VALID,0.76875,
2000-11-13, 00:31:00,VALID,914.873,VALID,0,VALID,100,VALID,-0.0679233,VALID,20.246,VALID,220,VALID,0.890831,
2000-11-13, 00:32:00,VALID,914.877,VALID,0,VALID,100,VALID,-0.0849042,VALID,20.2391,VALID,224,VALID,0.91653,
2000-11-13, 00:33:00,VALID,914.887,VALID,0,VALID,100,VALID,0.0509425,VALID,20.2346,VALID,216,VALID,0.811061,
2000-11-13, 00:34:00,VALID,914.897,VALID,0,VALID,100,VALID,0.0509425,VALID,20.2308,VALID,225,VALID,0.805921,
2000-11-13, 00:35:00,VALID,914.892,VALID,0,VALID,100,VALID,0.0509425,VALID,20.2308,VALID,197,VALID,0.714227,
2000-11-13, 00:36:00,VALID,914.911,VALID,0,VALID,100,VALID,0,VALID,20.2306,VALID,218,VALID,0.686472,
2000-11-13, 00:37:00,VALID,914.913,VALID,0,VALID,100,VALID,0,VALID,20.2313,VALID,221,VALID,0.647035,
2000-11-13, 00:38:00,VALID,914.912,VALID,0,VALID,100,VALID,0.0339617,VALID,20.2378,VALID,204,VALID,0.599219,
2000-11-13, 00:39:00,VALID,914.907,VALID,0.2,VALID,100,VALID,0.0169808,VALID,20.241,VALID,203,VALID,0.77241,
2000-11-13, 00:40:00,VALID,914.9,VALID,0,VALID,100,VALID,0.0339617,VALID,20.2442,VALID,229,VALID,0.513569,
2000-11-13, 00:41:00,VALID,914.897,VALID,0,VALID,100,VALID,0.0169808,VALID,20.2507,VALID,205,VALID,0.794202,
2000-11-13, 00:42:00,VALID,914.876,VALID,0,VALID,100,VALID,0.0169808,VALID,20.2539,VALID,222,VALID,0.452508,
2000-11-13, 00:43:00,VALID,914.86,VALID,0,VALID,100,VALID,0,VALID,20.251,VALID,224,VALID,0.851151,
2000-11-13, 00:44:00,VALID,914.843,VALID,0,VALID,100,VALID,0,VALID,20.2445,VALID,219,VALID,1.01069,
2000-11-13, 00:45:00,VALID,914.826,VALID,0,VALID,100,VALID,0.0169808,VALID,20.238,VALID,223,VALID,1.13682,
2000-11-13, 00:46:00,VALID,914.812,VALID,0,VALID,100,VALID,0.0169808,VALID,20.2184,VALID,232,VALID,1.44531,
2000-11-13, 00:47:00,VALID,914.802,VALID,0,VALID,100,VALID,0,VALID,20.2157,VALID,233,VALID,1.3419,
2000-11-13, 00:48:00,VALID,914.786,VALID,0,VALID,100,VALID,-0.0339617,VALID,20.2028,VALID,222,VALID,1.12315,
2000-11-13, 00:49:00,VALID,914.767,VALID,0.2,VALID,100,VALID,0,VALID,20.2127,VALID,223,VALID,1.38836,
2000-11-13, 00:50:00,VALID,914.749,VALID,0,VALID,100,VALID,0,VALID,20.2095,VALID,218,VALID,1.11225,
2000-11-13, 00:51:00,VALID,914.742,VALID,0,VALID,100,VALID,0,VALID,20.2095,VALID,234,VALID,1.00555,
2000-11-13, 00:52:00,VALID,914.707,VALID,0,VALID,100,VALID,0.0169808,VALID,20.2127,VALID,221,VALID,1.06517,
2000-11-13, 00:53:00,VALID,914.682,VALID,0,VALID,100,VALID,0,VALID,20.206,VALID,233,VALID,1.45873,
2000-11-13, 00:54:00,VALID,914.635,VALID,0,VALID,100,VALID,0,VALID,20.2028,VALID,230,VALID,0.97207,
2000-11-13, 00:55:00,VALID,914.597,VALID,0,VALID,100,VALID,0,VALID,20.206,VALID,238,VALID,0.909334,
2000-11-13, 00:56:00,VALID,914.568,VALID,0,VALID,100,VALID,0,VALID,20.2065,VALID,221,VALID,1.03577,
2000-11-13, 00:57:00,VALID,914.529,VALID,0,VALID,100,VALID,0,VALID,20.1928,VALID,229,VALID,1.09149,
2000-11-13, 00:58:00,VALID,914.507,VALID,0,VALID,100,VALID,0,VALID,20.1831,VALID,223,VALID,1.05654,
2000-11-13, 00:59:00,VALID,914.481,VALID,0,VALID,100,VALID,0,VALID,20.1866,VALID,229,VALID,1.05304,
2000-11-13, 01:00:00,VALID,914.463,VALID,0,VALID,100,VALID,0,VALID,20.1868,VALID,213,VALID,0.810855,
2000-11-13, 01:01:00,VALID,914.416,VALID,0,VALID,100,VALID,-0.0169808,VALID,20.1734,VALID,223,VALID,0.880008,
2000-11-13, 01:02:00,VALID,914.37,VALID,0,VALID,100,VALID,-0.0169808,VALID,20.167,VALID,211,VALID,0.824414,
2000-11-13, 01:03:00,VALID,914.323,VALID,0,VALID,100,VALID,0,VALID,20.1704,VALID,203,VALID,0.792969,
2000-11-13, 01:04:00,VALID,914.285,VALID,0,VALID,100,VALID,-0.0169808,VALID,20.1704,VALID,230,VALID,0.413651,
2000-11-13, 01:05:00,VALID,914.242,VALID,0,VALID,100,VALID,0,VALID,20.1637,VALID,221,VALID,0.803454,
2000-11-13, 01:06:00,VALID,914.231,VALID,0,VALID,100,VALID,-0.0339617,VALID,20.1637,VALID,221,VALID,0.783306,
2000-11-13, 01:07:00,VALID,914.225,VALID,0,VALID,100,VALID,-0.0339617,VALID,20.1508,VALID,243,VALID,0.50699,
2000-11-13, 01:08:00,VALID,914.227,VALID,0,VALID,100,VALID,0,VALID,20.1642,VALID,223,VALID,0.440378,
2000-11-13, 01:09:00,VALID,914.234,VALID,0,VALID,100,VALID,0,VALID,20.1675,VALID,211,VALID,0.421474,
2000-11-13, 01:10:00,VALID,914.241,VALID,0,VALID,100,VALID,-0.0169808,VALID,20.1667,VALID,224,VALID,0.182031,
2000-11-13, 01:11:00,VALID,914.236,VALID,0,VALID,100,VALID,0,VALID,20.1707,VALID,229,VALID,0,
2000-11-13, 01:12:00,VALID,914.23,VALID,0,VALID,100,VALID,0,VALID,20.1806,VALID,199,VALID,0,
2000-11-13, 01:13:00,VALID,914.219,VALID,0,VALID,100,VALID,0,VALID,20.1742,VALID,234,VALID,0.143503,
2000-11-13, 01:14:00,VALID,914.202,VALID,0,VALID,100,VALID,-0.0169808,VALID,20.1707,VALID,268,VALID,0,
2000-11-13, 01:15:00,VALID,914.18,VALID,0,VALID,100,VALID,0,VALID,20.1844,VALID,256,VALID,0.483141,
2000-11-13, 01:16:00,VALID,914.183,VALID,0,VALID,100,VALID,0,VALID,20.1744,VALID,268,VALID,0.259868,
2000-11-13, 01:17:00,VALID,914.18,VALID,0,VALID,100,VALID,0,VALID,20.1769,VALID,267,VALID,0,
2000-11-13, 01:18:00,VALID,914.177,VALID,0,VALID,100,VALID,0,VALID,20.1774,VALID,264,VALID,0,
2000-11-13, 01:19:00,VALID,914.157,VALID,0,VALID,100,VALID,0,VALID,20.1602,VALID,268,VALID,0,
2000-11-13, 01:20:00,VALID,914.141,VALID,0,VALID,100,VALID,0.0339617,VALID,20.1508,VALID,280,VALID,0.0935444,
2000-11-13, 01:21:00,VALID,914.138,VALID,0,VALID,100,VALID,0,VALID,20.154,VALID,287,VALID,0.0633224,
2000-11-13, 01:22:00,VALID,914.133,VALID,0,VALID,100,VALID,0,VALID,20.1409,VALID,272,VALID,0,
2000-11-13, 01:23:00,VALID,914.128,VALID,0,VALID,100,VALID,0,VALID,20.1409,VALID,272,VALID,0,
2000-11-13, 01:24:00,VALID,914.132,VALID,0,VALID,100,VALID,0,VALID,20.1443,VALID,272,VALID,0,
2000-11-13, 01:25:00,VALID,914.143,VALID,0,VALID,100,VALID,0.0509425,VALID,20.1516,VALID,260,VALID,0,
2000-11-13, 01:26:00,VALID,914.139,VALID,0,VALID,100,VALID,0.0169808,VALID,20.1446,VALID,259,VALID,0.213867,
2000-11-13, 01:27:00,VALID,914.141,VALID,0,VALID,100,VALID,0,VALID,20.1414,VALID,235,VALID,1.10053,
2000-11-13, 01:28:00,VALID,914.141,VALID,0,VALID,100,VALID,-0.0169808,VALID,20.1255,VALID,224,VALID,0.917146,
2000-11-13, 01:29:00,VALID,914.143,VALID,0,VALID,100,VALID,-0.0339617,VALID,20.1289,VALID,257,VALID,0.457854,
2000-11-13, 01:30:00,VALID,914.136,VALID,0,VALID,100,VALID,0,VALID,20.1357,VALID,316,VALID,0,
2000-11-13, 01:31:00,VALID,914.118,VALID,0,VALID,100,VALID,0,VALID,20.1287,VALID,304,VALID,0.0898438,
2000-11-13, 01:32:00,VALID,914.102,VALID,0,VALID,100,VALID,-0.0169808,VALID,20.1287,VALID,285,VALID,0.585115,
2000-11-13, 01:33:00,VALID,914.074,VALID,0,VALID,100,VALID,0.0169808,VALID,20.1187,VALID,274,VALID,0.847957,
2000-11-13, 01:34:00,VALID,914.063,VALID,0,VALID,100,VALID,0,VALID,20.1289,VALID,257,VALID,0.224609,
2000-11-13, 01:35:00,VALID,914.055,VALID,0,VALID,100,VALID,-0.0169808,VALID,20.1257,VALID,261,VALID,0.109169,
2000-11-13, 01:36:00,VALID,914.032,VALID,0,VALID,100,VALID,0,VALID,20.1155,VALID,240,VALID,0,
2000-11-13, 01:37:00,VALID,914.002,VALID,0,VALID,100,VALID,0,VALID,20.122,VALID,243,VALID,0.118627,
2000-11-13, 01:38:00,VALID,914,VALID,0,VALID,100,VALID,0,VALID,20.1389,VALID,252,VALID,0.0951891,
2000-11-13, 01:39:00,VALID,913.978,VALID,0,VALID,100,VALID,0.0169808,VALID,20.1453,VALID,265,VALID,0.172492,
2000-11-13, 01:40:00,VALID,913.945,VALID,0,VALID,100,VALID,0,VALID,20.1456,VALID,235,VALID,0.458059,
2000-11-13, 01:41:00,VALID,913.917,VALID,0,VALID,100,VALID,-0.0169808,VALID,20.1394,VALID,242,VALID,0.746795,
2000-11-13, 01:42:00,VALID,913.88,VALID,0,VALID,100,VALID,-0.0339617,VALID,20.1222,VALID,244,VALID,0.692187,
2000-11-13, 01:43:00,VALID,913.853,VALID,0,VALID,100,VALID,-0.0169808,VALID,20.119,VALID,234,VALID,0.623561,
2000-11-13, 01:44:00,VALID,913.839,VALID,0,VALID,100,VALID,-0.0169808,VALID,20.1354,VALID,237,VALID,0.730674,
2000-11-13, 01:45:00,VALID,913.804,VALID,0,VALID,100,VALID,-0.0169808,VALID,20.1289,VALID,228,VALID,0.895148,
2000-11-13, 01:46:00,VALID,913.78,VALID,0,VALID,100,VALID,0,VALID,20.1125,VALID,218,VALID,0.697368,
2000-11-13, 01:47:00,VALID,913.766,VALID,0,VALID,100,VALID,0,VALID,20.113,VALID,214,VALID,0.492393,
2000-11-13, 01:48:00,VALID,913.735,VALID,0,VALID,100,VALID,-0.0339617,VALID,20.1063,VALID,210,VALID,0.264186,
2000-11-13, 01:49:00,VALID,913.719,VALID,0,VALID,100,VALID,-0.0339617,VALID,20.0931,VALID,181,VALID,0.242388,
2000-11-13, 01:50:00,VALID,913.715,VALID,0,VALID,100,VALID,-0.0169808,VALID,20.0961,VALID,167,VALID,0.0207031,
2000-11-13, 01:51:00,VALID,913.699,VALID,0,VALID,100,VALID,0,VALID,20.1096,VALID,143,VALID,0.431949,
2000-11-13, 01:52:00,VALID,913.699,VALID,0,VALID,100,VALID,0,VALID,20.1026,VALID,126,VALID,0.622533,
2000-11-13, 01:53:00,VALID,913.696,VALID,0,VALID,100,VALID,0,VALID,20.0964,VALID,127,VALID,1.05037,
2000-11-13, 01:54:00,VALID,913.686,VALID,0,VALID,100,VALID,0,VALID,20.0862,VALID,124,VALID,0.660362,
2000-11-13, 01:55:00,VALID,913.668,VALID,0,VALID,100,VALID,0,VALID,20.0832,VALID,112,VALID,0.988281,
2000-11-13, 01:56:00,VALID,913.663,VALID,0,VALID,100,VALID,0,VALID,20.0735,VALID,145,VALID,0.727179,
2000-11-13, 01:57:00,VALID,913.647,VALID,0,VALID,100,VALID,-0.0169808,VALID,20.0608,VALID,116,VALID,0.679087,
2000-11-13, 01:58:00,VALID,913.631,VALID,0,VALID,100,VALID,0,VALID,20.0703,VALID,151,VALID,0.752539,
2000-11-13, 01:59:00,VALID,913.626,VALID,0,VALID,100,VALID,0,VALID,20.0541,VALID,159,VALID,0.539679,
2000-11-13, 02:00:00,VALID,913.626,VALID,0,VALID,100,VALID,0,VALID,20.0546,VALID,163,VALID,1.03988,
2000-11-13, 02:01:00,VALID,913.609,VALID,0,VALID,100,VALID,0,VALID,20.0444,VALID,163,VALID,0.980263,
2000-11-13, 02:02:00,VALID,913.589,VALID,0,VALID,100,VALID,0,VALID,20.0482,VALID,164,VALID,0.890214,
2000-11-13, 02:03:00,VALID,913.579,VALID,0,VALID,100,VALID,-0.0169808,VALID,20.0479,VALID,184,VALID,0.483347,
2000-11-13, 02:04:00,VALID,913.569,VALID,0,VALID,100,VALID,0,VALID,20.0409,VALID,210,VALID,0.372738,
2000-11-13, 02:05:00,VALID,913.553,VALID,0,VALID,100,VALID,-0.0169808,VALID,20.0514,VALID,235,VALID,0.683093,
2000-11-13, 02:06:00,VALID,913.544,VALID,0,VALID,100,VALID,-0.0169808,VALID,20.0477,VALID,211,VALID,0.624414,
2000-11-13, 02:07:00,VALID,913.53,VALID,0,VALID,100,VALID,-0.0169808,VALID,20.0611,VALID,193,VALID,0.684211,
2000-11-13, 02:08:00,VALID,913.518,VALID,0,VALID,100,VALID,0,VALID,20.0678,VALID,261,VALID,0.32977,
2000-11-13, 02:09:00,VALID,913.512,VALID,0,VALID,100,VALID,-0.0169808,VALID,20.0767,VALID,205,VALID,0.744243,
2000-11-13, 02:10:00,VALID,913.498,VALID,0,VALID,100,VALID,0,VALID,20.0509,VALID,195,VALID,0.740954,
2000-11-13, 02:11:00,VALID,913.483,VALID,0,VALID,100,VALID,0,VALID,20.0571,VALID,211,VALID,0.687911,
2000-11-13, 02:12:00,VALID,913.482,VALID,0,VALID,100,VALID,-0.0339617,VALID,20.0574,VALID,224,VALID,0.206003,
2000-11-13, 02:13:00,VALID,913.474,VALID,0,VALID,100,VALID,-0.0169808,VALID,20.0673,VALID,230,VALID,0,
2000-11-13, 02:14:00,VALID,913.463,VALID,0,VALID,100,VALID,0,VALID,20.0772,VALID,232,VALID,0.198242,
2000-11-13, 02:15:00,VALID,913.434,VALID,0,VALID,100,VALID,-0.0169808,VALID,20.0603,VALID,228,VALID,0.654194,
2000-11-13, 02:16:00,VALID,913.418,VALID,0,VALID,100,VALID,0,VALID,20.0636,VALID,233,VALID,0.835938,
2000-11-13, 02:17:00,VALID,913.391,VALID,0.2,VALID,100,VALID,0,VALID,20.0735,VALID,229,VALID,0.439762,
2000-11-13, 02:18:00,VALID,913.372,VALID,0,VALID,100,VALID,-0.0339617,VALID,20.0807,VALID,224,VALID,0.487664,
2000-11-13, 02:19:00,VALID,913.336,VALID,0,VALID,100,VALID,-0.0339617,VALID,20.0743,VALID,236,VALID,0.428248,
2000-11-13, 02:20:00,VALID,913.328,VALID,0,VALID,100,VALID,-0.0169808,VALID,20.0646,VALID,229,VALID,0.543791,
2000-11-13, 02:21:00,VALID,913.313,VALID,0,VALID,100,VALID,-0.0169808,VALID,20.0546,VALID,222,VALID,0.40625,
2000-11-13, 02:22:00,VALID,913.276,VALID,0,VALID,100,VALID,0,VALID,20.0541,VALID,218,VALID,0.37207,
2000-11-13, 02:23:00,VALID,913.253,VALID,0,VALID,100,VALID,0,VALID,20.0511,VALID,215,VALID,0.198396,
2000-11-13, 02:24:00,VALID,913.232,VALID,0,VALID,100,VALID,0.0169808,VALID,20.0412,VALID,215,VALID,0.0104852,
2000-11-13, 02:25:00,VALID,913.216,VALID,0.2,VALID,100,VALID,0,VALID,20.0479,VALID,219,VALID,0.517475,
2000-11-13, 02:26:00,VALID,913.194,VALID,0,VALID,100,VALID,0,VALID,20.0509,VALID,217,VALID,0.356702,
2000-11-13, 02:27:00,VALID,913.176,VALID,0,VALID,100,VALID,0,VALID,20.0509,VALID,217,VALID,0.533923,
2000-11-13, 02:28:00,VALID,913.174,VALID,0,VALID,100,VALID,0,VALID,20.0608,VALID,210,VALID,0.420436,
2000-11-13, 02:29:00,VALID,913.164,VALID,0,VALID,100,VALID,-0.0169808,VALID,20.0541,VALID,206,VALID,0.51222,
2000-11-13, 02:30:00,VALID,913.157,VALID,0.2,VALID,100,VALID,0,VALID,20.0576,VALID,208,VALID,0.488672,
2000-11-13, 02:31:00,VALID,913.156,VALID,0,VALID,100,VALID,-0.0169808,VALID,20.0539,VALID,235,VALID,0,
2000-11-13, 02:32:00,VALID,913.149,VALID,0,VALID,100,VALID,0,VALID,20.07,VALID,235,VALID,0,
2000-11-13, 02:33:00,VALID,913.143,VALID,0.2,VALID,100,VALID,0,VALID,20.0705,VALID,195,VALID,0.00123355,
2000-11-13, 02:34:00,VALID,913.131,VALID,0,VALID,100,VALID,-0.0169808,VALID,20.0805,VALID,182,VALID,0.118832,
2000-11-13, 02:35:00,VALID,913.134,VALID,0,VALID,100,VALID,-0.0169808,VALID,20.081,VALID,181,VALID,0.0768914,
2000-11-13, 02:36:00,VALID,913.123,VALID,0,VALID,100,VALID,-0.0339617,VALID,20.0745,VALID,181,VALID,0,
2000-11-13, 02:37:00,VALID,913.121,VALID,0.2,VALID,100,VALID,0,VALID,20.0474,VALID,181,VALID,0,
2000-11-13, 02:38:00,VALID,913.128,VALID,0,VALID,100,VALID,0,VALID,20.0479,VALID,181,VALID,0,
2000-11-13, 02:39:00,VALID,913.126,VALID,0,VALID,100,VALID,-0.0169808,VALID,20.0514,VALID,184,VALID,0,
2000-11-13, 02:40:00,VALID,913.128,VALID,0,VALID,100,VALID,-0.0169808,VALID,20.0646,VALID,204,VALID,0,
2000-11-13, 02:41:00,VALID,913.13,VALID,0,VALID,100,VALID,0,VALID,20.0611,VALID,223,VALID,0.477179,
2000-11-13, 02:42:00,VALID,913.129,VALID,0.2,VALID,100,VALID,0,VALID,20.0511,VALID,230,VALID,0.602179,
2000-11-13, 02:43:00,VALID,913.118,VALID,0,VALID,100,VALID,0,VALID,20.0484,VALID,229,VALID,0.359786,
2000-11-13, 02:44:00,VALID,913.122,VALID,0,VALID,100,VALID,0,VALID,20.0546,VALID,236,VALID,0.699424,
2000-11-13, 02:45:00,VALID,913.109,VALID,0,VALID,100,VALID,0,VALID,20.0646,VALID,247,VALID,0.468149,
2000-11-13, 02:46:00,VALID,913.109,VALID,0,VALID,100,VALID,0,VALID,20.0678,VALID,244,VALID,0.118945,
2000-11-13, 02:47:00,VALID,913.11,VALID,0,VALID,100,VALID,0,VALID,20.067,VALID,237,VALID,0.366982,
2000-11-13, 02:48:00,VALID,913.11,VALID,0.2,VALID,100,VALID,0,VALID,20.0603,VALID,244,VALID,0.426809,
2000-11-13, 02:49:00,VALID,913.119,VALID,0,VALID,100,VALID,0.0339617,VALID,20.0568,VALID,243,VALID,0.178865,
2000-11-13, 02:50:00,VALID,913.117,VALID,0,VALID,100,VALID,-0.0169808,VALID,20.067,VALID,248,VALID,0.414885,
2000-11-13, 02:51:00,VALID,913.133,VALID,0,VALID,100,VALID,0.0339617,VALID,20.0641,VALID,254,VALID,0.551398,
2000-11-13, 02:52:00,VALID,913.123,VALID,0,VALID,100,VALID,0,VALID,20.0474,VALID,244,VALID,0.220395,
2000-11-13, 02:53:00,VALID,913.138,VALID,0,VALID,100,VALID,0,VALID,20.0506,VALID,244,VALID,0.107772,
2000-11-13, 02:54:00,VALID,913.129,VALID,0,VALID,100,VALID,0.0339617,VALID,20.0442,VALID,244,VALID,0.00429688,
2000-11-13, 02:55:00,VALID,913.119,VALID,0.2,VALID,100,VALID,0.0339617,VALID,20.0409,VALID,244,VALID,0.0193257,
2000-11-13, 02:56:00,VALID,913.121,VALID,0,VALID,100,VALID,0.0169808,VALID,20.0407,VALID,244,VALID,0,
2000-11-13, 02:57:00,VALID,913.13,VALID,0,VALID,100,VALID,0.0679233,VALID,20.0474,VALID,244,VALID,0,
2000-11-13, 02:58:00,VALID,913.129,VALID,0,VALID,100,VALID,0.0509425,VALID,20.0409,VALID,244,VALID,0,
2000-11-13, 02:59:00,VALID,913.137,VALID,0,VALID,100,VALID,0,VALID,20.038,VALID,244,VALID,0,
2000-11-13, 03:00:00,VALID,913.134,VALID,0,VALID,100,VALID,0.0169808,VALID,20.0278,VALID,244,VALID,0,
2000-11-13, 03:01:00,VALID,913.118,VALID,0,VALID,100,VALID,0,VALID,20.0283,VALID,244,VALID,0,
2000-11-13, 03:02:00,VALID,913.117,VALID,0,VALID,100,VALID,0,VALID,20.0315,VALID,244,VALID,0,
2000-11-13, 03:03:00,VALID,913.098,VALID,0,VALID,100,VALID,-0.0679233,VALID,20.0238,VALID,244,VALID,0,
2000-11-13, 03:04:00,VALID,913.093,VALID,0,VALID,100,VALID,-0.0679233,VALID,20.0042,VALID,248,VALID,0.103002,
2000-11-13, 03:05:00,VALID,913.078,VALID,0,VALID,100,VALID,-0.0509425,VALID,19.9913,VALID,266,VALID,0.193257,
2000-11-13, 03:06:00,VALID,913.053,VALID,0,VALID,100,VALID,-0.101885,VALID,19.9811,VALID,284,VALID,0.26028,
2000-11-13, 03:07:00,VALID,913.041,VALID,0,VALID,100,VALID,-0.0679233,VALID,19.9582,VALID,296,VALID,0.265214,
2000-11-13, 03:08:00,VALID,913.03,VALID,0,VALID,100,VALID,-0.0849042,VALID,19.9455,VALID,296,VALID,0.175781,
2000-11-13, 03:09:00,VALID,913.01,VALID,0.2,VALID,100,VALID,-0.0339617,VALID,19.9391,VALID,293,VALID,0.0088141,
2000-11-13, 03:10:00,VALID,913.005,VALID,0,VALID,100,VALID,-0.0339617,VALID,19.9227,VALID,274,VALID,0,
2000-11-13, 03:11:00,VALID,912.994,VALID,0,VALID,100,VALID,-0.0509425,VALID,19.9259,VALID,247,VALID,0,
2000-11-13, 03:12:00,VALID,912.996,VALID,0,VALID,100,VALID,-0.0339617,VALID,19.9229,VALID,237,VALID,0,
2000-11-13, 03:13:00,VALID,912.996,VALID,0,VALID,100,VALID,-0.0169808,VALID,19.9291,VALID,215,VALID,0.138775,
2000-11-13, 03:14:00,VALID,912.999,VALID,0,VALID,100,VALID,-0.101885,VALID,19.9197,VALID,212,VALID,0.811061,
2000-11-13, 03:15:00,VALID,913.009,VALID,0,VALID,100,VALID,-0.0509425,VALID,19.8971,VALID,231,VALID,0.978002,
2000-11-13, 03:16:00,VALID,913.012,VALID,0,VALID,100,VALID,-0.0679233,VALID,19.8938,VALID,231,VALID,0.627056,
2000-11-13, 03:17:00,VALID,913.025,VALID,0,VALID,100,VALID,-0.0169808,VALID,19.9035,VALID,206,VALID,0,
2000-11-13, 03:18:00,VALID,913.021,VALID,0,VALID,100,VALID,-0.0509425,VALID,19.8906,VALID,201,VALID,0,
2000-11-13, 03:19:00,VALID,913.018,VALID,0,VALID,100,VALID,-0.0849042,VALID,19.8911,VALID,187,VALID,0,
2000-11-13, 03:20:00,VALID,913.002,VALID,0,VALID,100,VALID,-0.0679233,VALID,19.8844,VALID,216,VALID,0,
2000-11-13, 03:21:00,VALID,912.984,VALID,0,VALID,100,VALID,-0.0339617,VALID,19.8941,VALID,222,VALID,0,
2000-11-13, 03:22:00,VALID,912.967,VALID,0,VALID,100,VALID,-0.0509425,VALID,19.8903,VALID,236,VALID,0.342311,
2000-11-13, 03:23:00,VALID,912.962,VALID,0,VALID,100,VALID,-0.0509425,VALID,19.8812,VALID,229,VALID,0.951275,
2000-11-13, 03:24:00,VALID,912.959,VALID,0,VALID,100,VALID,-0.0169808,VALID,19.8774,VALID,236,VALID,0.866571,
2000-11-13, 03:25:00,VALID,912.965,VALID,0,VALID,100,VALID,-0.0509425,VALID,19.8615,VALID,237,VALID,1.01142,
2000-11-13, 03:26:00,VALID,912.976,VALID,0,VALID,100,VALID,-0.0339617,VALID,19.8652,VALID,202,VALID,0.525195,
2000-11-13, 03:27:00,VALID,913.004,VALID,0,VALID,100,VALID,-0.0509425,VALID,19.8618,VALID,192,VALID,0.49486,
2000-11-13, 03:28:00,VALID,912.997,VALID,0,VALID,100,VALID,-0.0849042,VALID,19.8488,VALID,211,VALID,0.278988,
2000-11-13, 03:29:00,VALID,912.996,VALID,0,VALID,100,VALID,-0.0339617,VALID,19.8416,VALID,228,VALID,0.253906,
2000-11-13, 03:30:00,VALID,913.004,VALID,0,VALID,100,VALID,-0.0679233,VALID,19.8357,VALID,237,VALID,0.384046,
2000-11-13, 03:31:00,VALID,912.996,VALID,0,VALID,100,VALID,-0.0339617,VALID,19.8391,VALID,235,VALID,0.924342,
2000-11-13, 03:32:00,VALID,912.989,VALID,0,VALID,100,VALID,-0.0679233,VALID,19.8357,VALID,243,VALID,0.657072,
2000-11-13, 03:33:00,VALID,912.987,VALID,0,VALID,100,VALID,-0.0679233,VALID,19.8389,VALID,253,VALID,0.652444,
2000-11-13, 03:34:00,VALID,912.983,VALID,0,VALID,100,VALID,-0.0849042,VALID,19.8456,VALID,239,VALID,0.600195,
2000-11-13, 03:35:00,VALID,912.984,VALID,0,VALID,100,VALID,-0.0169808,VALID,19.8357,VALID,241,VALID,0.538035,
2000-11-13, 03:36:00,VALID,912.977,VALID,0,VALID,100,VALID,-0.0679233,VALID,19.8424,VALID,264,VALID,0.0678454,
2000-11-13, 03:37:00,VALID,912.982,VALID,0,VALID,100,VALID,-0.0849042,VALID,19.8391,VALID,264,VALID,0,
2000-11-13, 03:38:00,VALID,912.975,VALID,0,VALID,100,VALID,-0.0849042,VALID,19.8322,VALID,250,VALID,0.088199,
2000-11-13, 03:39:00,VALID,912.975,VALID,0,VALID,100,VALID,-0.0679233,VALID,19.8357,VALID,222,VALID,0.166118,
2000-11-13, 03:40:00,VALID,912.966,VALID,0,VALID,100,VALID,-0.0679233,VALID,19.8232,VALID,227,VALID,0.664063,
2000-11-13, 03:41:00,VALID,912.97,VALID,0,VALID,100,VALID,-0.0679233,VALID,19.8068,VALID,230,VALID,0.846354,
2000-11-13, 03:42:00,VALID,912.963,VALID,0,VALID,100,VALID,-0.0679233,VALID,19.7904,VALID,224,VALID,0.604883,
2000-11-13, 03:43:00,VALID,912.964,VALID,0,VALID,100,VALID,-0.0679233,VALID,19.7971,VALID,220,VALID,0.460938,